{"data":{"norad_id":59623,"epoch":"2026-09-20T15:25:06.237984Z","epoch_age_seconds":155791,"freshness":"FRESH","line1":"1 59623U 24080Y   26263.64243331 -.00003105  00000+0 -10346-3 0  9991","line2":"2 59623  43.0023  17.2981 0001107 208.3718 151.7074 15.27554312134340","mean_motion":15.27554312,"eccentricity":0.0001107,"inclination_deg":43.0023,"raan_deg":17.2981,"arg_perigee_deg":208.3718,"mean_anomaly_deg":151.7074,"bstar":-0.00010346,"rev_number":13434,"period_min":94.268333943206,"perigee_km":482.36647441488,"apogee_km":483.88555804668,"semimajor_km":6861.2630162308,"source":"CELESTRAK","updated_at":"2026-09-22T09:00:49.015818Z"}}